Location: Andrea Ville Subdivision
(14.3485°N, 120.9580°E)
Time: 03:04:05
(UTC+00:00)

BlueWalker 3 - Pass Details

Date: 13 January 2026
Orbit: 451 x 461 km, 53.2° (Epoch: 15 February)

Event Time Altitude Azimuth Distance (km) Brightness Sun altitude
Rises 10:52:29 0° 187° (S) 2,445 5.8 -16.1°
Reaches altitude 10° 10:55:05 10° 167° (SSE) 1,572 4.5 -16.7°
Enters shadow 10:56:57 17° 136° (SE) 1,199 3.6 -17.1°
